Tracking 29967 objects as of 5-Dec-2024
HD Live streaming from Space Station
objects crossing your sky now

STARLINK-30269

Track STARLINK-30269 now!
10-day predictions
STARLINK-30269 is classified as:


NORAD ID: 57528
Int'l Code: 2023-115H
Perigee: 564.9 km
Apogee: 567.5 km
Inclination: 43.0 °
Period: 95.8 minutes
Semi major axis: 6937 km
RCS: Unknown
Launch date: August 8, 2023
Source: United States (US)
Launch site: AIR FORCE WESTERN TEST RANGE (AFWTR)
Your satellite tracking list
Your tracking list is empty




NASA's NSSDC Master Catalog

Two Line Element Set (TLE):
1 57528U 23115H   24340.50877147  .00007957  00000-0  60328-3 0  9991
2 57528  43.0035 339.6489 0001847 274.4859  85.5772 15.02546733 73241
Source of the keplerian elements: AFSPC